Terminal Aerodrome Forecast
Issued by NWS

Home | Current Version | Previous Version | Text Only | Print | Product List | Glossary On
Versions: 1 2 3 4 5 6 7 8 9 10 11 12 13 14 15 16 17 18 19 20 21 22 23 24 25 26 27 28 29 30 31 32 33 34
000
FTUS43 KPAH 082320
TAFOWB
TAF
KOWB 082320Z 0900/0924 30013G19KT 5SM -SHSN OVC040
      TEMPO 0901/0903 1SM -SN BR BKN012 OVC025
     FM090700 29012KT 6SM -SN BKN020 OVC040
      TEMPO 0908/0911 3SM -SN BR OVC020=

USA.gov is the U.S. government's official web portal to all federal, state and local government web resources and services.